Date,TemperatureHighF,TemperatureAvgF,TemperatureLowF,DewpointHighF,DewpointAvgF,DewpointLowF,HumidityHigh,HumidityAvg,HumidityLow,PressureMaxIn,PressureMinIn,WindSpeedMaxMPH,WindSpeedAvgMPH,GustSpeedMaxMPH,PrecipitationSumIn
2013-10-1,88.9,65.2,54.5,68.0,44.1,-99.9,97,62,40,29.92,29.84,12,-103,17,0.00
2013-10-2,87.4,68.2,68.7,72.0,48.1,-99.9,95,66,55,29.95,29.82,8,-122,17,0.00
2013-10-3,90.5,70.7,72.0,73.0,47.8,-99.9,89,60,51,29.88,29.74,13,-123,21,0.00
2013-10-4,87.9,71.4,72.5,71.0,51.0,-99.9,88,63,53,29.86,29.77,12,-100,20,0.00
2013-10-5,77.0,50.6,44.5,68.0,26.9,-99.9,87,59,40,30.13,29.81,17,-143,21,0.03
2013-10-6,70.9,48.9,40.2,41.0,36.3,30.0,92,67,22,30.11,30.06,4,0,7,0.00
2013-10-7,80.4,51.8,41.4,45.0,17.0,-99.9,88,42,18,30.20,30.09,7,-145,9,0.00
2013-10-8,80.5,54.6,42.7,52.0,24.3,-99.9,94,48,27,30.13,29.99,9,-146,13,0.00
2013-10-9,82.6,57.3,46.9,56.0,28.2,-99.9,97,51,35,30.07,29.96,9,-154,14,0.00
2013-10-10,82.6,74.9,59.8,64.0,59.2,55.0,89,59,44,30.04,29.84,12,5,20,0.00
2013-10-11,87.0,66.2,64.2,69.0,44.9,-99.9,91,63,51,29.87,29.77,10,-122,20,0.00
2013-10-12,83.7,66.9,65.1,71.0,47.4,-99.9,97,66,51,30.08,29.84,10,-112,13,0.00
2013-10-13,74.4,57.2,59.4,69.0,37.6,-99.9,100,74,81,30.21,30.08,5,-166,9,0.00
2013-10-14,70.3,51.3,65.4,70.0,25.0,-99.9,98,71,84,30.15,29.89,8,-250,14,1.02
2013-10-15,70.7,43.3,52.0,70.0,16.3,-99.9,98,68,81,30.12,29.88,13,-250,18,0.33
2013-10-16,62.6,44.8,44.1,53.0,19.4,-99.9,98,60,51,30.18,30.06,10,-173,14,0.01
2013-10-17,58.8,32.0,38.4,47.0,0.7,-99.9,98,63,64,30.15,30.09,3,-288,8,0.00
2013-10-21,49.5,42.9,38.8,42.0,39.4,37.0,93,87,75,30.17,30.11,0,0,0,0.00
2013-10-22,76.1,56.0,36.7,49.0,44.2,35.0,97,69,37,30.19,30.03,8,1,13,0.00
2013-10-23,79.4,52.0,42.6,52.0,23.0,-99.9,97,52,33,30.15,30.01,6,-167,13,0.00
2013-10-24,67.4,47.9,47.8,47.0,20.4,-99.9,84,52,41,30.34,30.03,10,-156,15,0.00
2013-10-25,63.7,45.3,41.9,44.0,19.7,-99.9,80,54,48,30.45,30.27,6,-146,16,0.00
2013-10-26,62.5,47.8,49.4,59.0,30.6,-99.9,98,76,77,30.26,30.07,4,-145,9,0.86
2013-10-27,67.1,48.5,52.8,59.0,29.0,-99.9,98,76,75,30.15,30.01,5,-174,8,0.01
2013-10-28,68.2,58.8,46.5,65.0,57.4,46.0,98,95,86,30.11,30.01,7,1,11,0.01
2013-10-29,76.1,70.5,66.5,70.0,67.0,64.0,94,88,80,30.05,29.93,12,5,17,0.01
2013-10-30,71.0,68.1,64.3,69.0,66.5,64.0,98,94,88,29.97,29.76,13,5,19,0.11
2013-10-31,68.3,62.4,50.9,66.0,52.6,43.0,98,73,43,29.86,29.63,10,3,19,0.02